Preview of NWS' New Version of Forecast
This preview is not operational and should not be used for support decisions.

Regional Weather Roundup (RWR)

Issued by Gray - Portland, ME (GYX)

                            
325 
ASUS41 KGYX 191410
RWRGYX
WEATHER ROUNDUP FOR MAINE AND NEW HAMPSHIRE
NATIONAL WEATHER SERVICE GRAY ME
900 AM EST MON FEB 19 2018

MEZ002-005-006-010-012-015-018-020-021-024-026-027-029-191500-
MAINE
  
CITY           SKY/WX    TMP DP  RH WIND       PRES   REMARKS
PORTLAND       FAIR      30  22  72 CALM      30.51F                  
SANFORD        FAIR      34  23  64 VRB3      30.51S                  
BAR HARBOR     FAIR      33  25  72 CALM      30.55F                  
WISCASSET      FAIR      33  29  85 SW5       30.52F                  
ROCKLAND       FAIR      40  31  70 S10G16    30.52F                  
FRYEBURG       FAIR      24  20  84 CALM      30.47F                  
LEWISTONAUBURN FAIR      28  25  88 S5        30.51S                  
AUGUSTA        FAIR      29  22  75 VRB3      30.50F                  
WATERVILLE     FAIR      30  21  69 SW5       30.46F                  
BANGOR         FAIR      20  19  96 SE3       30.52F                  
GREENVILLE       N/A     26  18  71 S7        30.39R                  
MILLINOCKET    FAIR      18  16  92 SE5       30.50S                  
HOULTON        FAIR      25  17  72 S8        30.47F                  
PRESQUE ISLE   FAIR      22  19  89 SE5       30.45F                  
FRENCHVILLE    CLOUDY    17  13  84 S8        30.35F                  
CARIBOU        CLOUDY    19  13  77 SE5       30.42F                  
$$

NHZ002-005-008-009-011-012-014-191500-
NEW HAMPSHIRE
  
CITY           SKY/WX    TMP DP  RH WIND       PRES   REMARKS
PORTSMOUTH     MOSUNNY   26  24  93 S6        30.50F                  
ROCHESTER      FAIR      29  22  75 CALM      30.49F                  
NASHUA         FAIR      31  29  92 VRB3      30.52F                  
MANCHESTER     FAIR      27  21  78 SW3       30.50F                  
CONCORD        FAIR      26  23  88 CALM      30.49F                  
LACONIA        FAIR      21  17  84 E3        30.50R                  
PLYMOUTH       FAIR      19  18  95 CALM      30.51R                  
BERLIN         FAIR      11   9  92 CALM      30.41R                  
WHITEFIELD     FAIR      14  12  92 CALM      30.40R                  
JAFFREY        FAIR      32  25  75 S10G16    30.45S                  
KEENE          FAIR      31  28  89 CALM      30.50R                  
LEBANON        FAIR      31  21  66 S14       30.45R                  
MT WASHINGTON  MOSUNNY   18  -2  41 SW48G63     N/A  WCI  -6          
$$

VTZ005-007-008-191500-
VERMONT
  
CITY           SKY/WX    TMP DP  RH WIND       PRES   REMARKS
ST JOHNSBURY     N/A     17  14  88 MISG      30.42S                  
MONTPELIER     FAIR      29  20  69 S5        30.40S                  
BURLINGTON     FAIR      34  20  56 S16       30.35S                  
$$

MAZ007-012-024-CTZ003-RIZ002-NYZ038-NYZ072-191500-
SOUTHERN NEW ENGLAND AND NY
  
CITY           SKY/WX    TMP DP  RH WIND       PRES   REMARKS
BOSTON         FAIR      37  28  70 S13       30.54F                  
WORCESTER      FAIR      31  25  78 S15G25    30.48F                  
NANTUCKET      FAIR      42  37  82 S12       30.59F                  
PROVIDENCE     FAIR      36  31  82 CALM      30.56F                  
HARTFORD       PTSUNNY   32  26  78 S7        30.53S                  
ALBANY         FAIR      35  23  61 S16G23    30.44R                  
NEW YORK CITY  FAIR      43  33  68 S9        30.52S                  
$$

ANZ081-ANZ082-ANZ150-NHZ014-MEZ023>029-191500-
COASTAL MARINE OBSERVATIONS
  
STATION/POSITION TIME  TEMP    WIND        PRES    WAVE
                       AIR SEA DIR/SP/G            HT/PER
                 (UTC) (F)     (DEG/KT/KT) (MB)    (FT/S)
MOUNT DESERT ROC 1400   40     170/ 20/ 23 1034.5F
MATINICUS ROCK   1400   40     210/ 21/ 23 1033.5F
ISLE OF SHOALS   1400   36     200/ 17/ 18 1033.2F
JEFFREYS LEDGE   1336      41                N/A     5/10
GEORGES BANK BUO 1250   40 58              1030.7   18/12
$$

.............KEY..............
   WCI - WIND CHILL
   TC  - TEMPERATURE IN CELSIUS
   VSB - VISIBILITY IN MILES
   HX  - HEAT INDEX
   FAIR- INDICATES FEW OR NO CLOUDS BELOW 12,000 FT, WITH NO 
         SIGNIFICANT WEATHER AND/OR OBSTRUCTIONS TO VISIBILITY.